[[{"header":{"parameterUnit":"m.s-1","parameterCategory":1,"la1":30.2991,"la2":30.254,"lo1":-89.0895,"lo2":-89.0444,"dy":0.0017,"dx":0.0017,"nx":28,"ny":28,"refTime":"2024-04-17T03:00:00:Z","depth":0,"parameterNumber":2,"parameterNumberName":"U-component_of_WINDS"},"data":[0,0,0,0,0,0,0,0,0,0,0,0,0,0,0,0,0,0,0,0,0,0,0,0,0,0,0,0,0,0,0,0,0,0,0,0,0,0,0,0,0,0,0,0,0,0,0,0,0,0,0,0,0,0,0,0,0,0,-3.5257,-3.5258,0,-3.5356,-3.5357,-3.5359,-3.5363,-3.5362,-3.5361,-3.536,-3.5461,-3.5464,-3.5468,0,0,0,0,0,0,0,0,0,0,0,0,0,-3.5072,-3.5075,-3.5257,-3.5258,-3.526,-3.5356,-3.5357,-3.5359,-3.5363,-3.5362,-3.536,-3.5359,-3.5459,-3.5464,-3.5468,0,0,0,0,0,0,0,0,0,0,0,0,0,-3.516,-3.5076,-3.5257,-3.5274,-3.5276,-3.5356,-3.5357,-3.5359,-3.5364,-3.5362,-3.536,-3.5358,-3.5458,-3.5463,-3.5469,-3.5539,0,0,-3.5486,-3.5489,0,0,0,0,0,0,0,0,-3.5155,-3.5166,-3.527,-3.5273,-3.5275,-3.5346,-3.5329,-3.5419,-3.5364,-3.533,-3.536,-3.5358,-3.5424,-3.5432,-3.5455,-3.5544,-3.5548,-3.5487,-3.549,-3.5493,-3.5494,0,0,0,0,0,0,0,-3.5149,-3.5162,-3.5296,-3.5271,-3.5275,-3.5276,-3.5287,-3.5346,-3.5386,-3.5333,-3.5334,-3.5345,-3.5425,-3.5449,-3.5457,-3.555,-3.5487,-3.5492,-3.5495,-3.5497,-3.57,-3.5702,0,0,0,0,0,0,-3.5139,-3.5157,-3.5293,-3.5299,-3.521,-3.5281,-3.5293,-3.5325,-3.5385,-3.5392,-3.5347,-3.5345,-3.544,-3.545,-3.5461,-3.5545,-3.5493,-3.5498,-3.5501,-3.5698,-3.5701,-3.5703,0,0,0,0,0,0,-3.5135,-3.5151,-3.5289,-3.5229,-3.5246,-3.5286,-3.5322,-3.5328,-3.5352,-3.5395,-3.5402,-3.5364,-3.5439,-3.5453,-3.5519,-3.5549,-3.5501,-3.5506,-3.5696,-3.5699,-3.5702,-3.5716,0,0,0,0,0,0,-3.513,-3.515,-3.5177,-3.5229,-3.5249,-3.5346,-3.5324,-3.5331,-3.5362,-3.536,-3.5413,-3.5421,-3.5439,-3.5511,-3.5525,-3.5556,-3.551,-3.5693,-3.5697,-3.5701,-3.5713,-3.5719,-3.5724,0,0,0,0,0,-3.5123,-3.5177,-3.5178,-3.5195,-3.5284,-3.5348,-3.536,-3.538,-3.5364,-3.5391,-3.5419,-3.5419,-3.5544,-3.5518,-3.5534,-3.5566,-3.5692,-3.5696,-3.57,-3.571,-3.5718,-3.5724,0,0,0,0,0,0,-3.5127,-3.5184,-3.5186,-3.5258,-3.5298,-3.5349,-3.5384,-3.5387,-3.5432,-3.5429,-3.5453,-3.5465,-3.553,-3.5556,-3.5525,-3.5637,-3.5616,-3.5624,-3.5618,-3.5625,-3.5631,-3.5622,-3.5515,0,0,0,0,0,-3.5137,-3.5184,-3.5231,-3.5291,-3.531,-3.5344,-3.5372,-3.5385,-3.5427,-3.5444,-3.5477,-3.5518,-3.5566,-3.5597,-3.5644,-3.5717,-3.5728,-3.5748,-3.5753,-3.5758,-3.5764,-3.5803,-3.5812,-3.5717,-3.5717,-3.5717,0,0,-3.5156,-3.5193,-3.5222,-3.5292,-3.5325,-3.5373,-3.5358,-3.541,-3.5446,-3.5452,-3.5516,-3.5542,-3.5589,-3.5659,-3.5691,-3.5682,-3.5793,-3.5763,-3.5767,-3.577,-3.5808,-3.5817,-3.5825,-3.5721,-3.572,-3.5719,0,0,-3.5216,-3.525,-3.5302,-3.5335,-3.5384,-3.5406,-3.5418,-3.5469,-3.5486,-3.5551,-3.5556,-3.56,-3.5683,-3.5716,-3.5744,-3.5817,-3.5817,-3.5831,-3.586,-3.5898,-3.5905,-3.5912,-3.5937,-3.5945,-3.5838,-3.5838,-3.5838,0,-3.5234,-3.5307,-3.5328,-3.538,-3.541,-3.5419,-3.5471,-3.5502,-3.5564,-3.5585,-3.5574,-3.5678,-3.5711,-3.5788,-3.5805,-3.5828,-3.5843,-3.5824,-3.5903,-3.591,-3.5916,-3.594,-3.5949,-3.5839,-3.5839,-3.5839,-3.5838,0,-3.5326,-3.5377,-3.5413,-3.5472,-3.5507,-3.5559,-3.5588,-3.5621,-3.5631,-3.5653,-3.572,-3.5759,-3.5814,-3.5833,-3.5843,-3.5912,-3.5904,-3.5898,-3.5877,-3.5926,-3.5948,-3.5958,-3.5841,-3.584,-3.584,-3.584,0,0,-3.539,-3.5461,-3.5474,-3.55,-3.5555,-3.5595,-3.5647,-3.5701,-3.5728,-3.5771,-3.5815,-3.5885,-3.5879,-3.5911,-3.5925,-3.5958,-3.6012,-3.5948,-3.5949,-3.5957,-3.6088,-3.6092,-3.6102,-3.6014,-3.6016,-3.6017,-3.6084,0,-3.5455,-3.5548,-3.5568,-3.5648,-3.5695,-3.5703,-3.5749,-3.5788,-3.5811,-3.5853,-3.5879,-3.5928,-3.5917,-3.5936,-3.597,-3.5998,-3.6038,-3.5994,-3.6054,-3.6056,-3.6039,-3.6114,-3.6118,-3.6179,-3.6093,-3.6095,-3.6096,0,-3.5542,-3.5587,-3.5671,-3.572,-3.574,-3.578,-3.5831,-3.5872,-3.5916,-3.593,-3.5966,-3.5976,-3.603,-3.6008,-3.6083,-3.6052,-3.6078,-3.6096,-3.6099,-3.6103,-3.6077,-3.6119,-3.6199,-3.6207,-3.611,-3.6109,-3.6108,0,-3.5579,-3.566,-3.572,-3.5743,-3.5802,-3.583,-3.5855,-3.5898,-3.5928,-3.5973,-3.5993,-3.6043,-3.607,-3.6109,-3.6132,-3.6114,-3.6205,-3.6185,-3.6218,-3.6217,-3.6235,-3.6233,-3.6318,-3.6255,-3.6255,-3.6254,-3.6254,0,-3.5648,-3.5698,-3.5737,-3.5774,-3.5832,-3.5855,-3.5911,-3.5937,-3.5975,-3.6017,-3.6028,-3.6067,-3.6097,-3.614,-3.6159,-3.6217,-3.623,-3.6243,-3.6247,-3.6241,-3.6239,-3.6257,-3.6252,-3.6257,-3.6256,-3.6256,-3.6255,0,-3.5697,-3.5725,-3.5792,-3.5841,-3.5855,-3.5895,-3.5938,-3.5974,-3.5997,-3.605,-3.6064,-3.6101,-3.6153,-3.6181,-3.6245,-3.6258,-3.6323,-3.6326,-3.6308,-3.6309,-3.634,-3.6336,-3.6438,-3.6452,-3.638,-3.6381,-3.6382,0,-3.5738,-3.5777,-3.5831,-3.586,-3.5886,-3.5933,-3.5964,-3.5989,-3.6021,-3.6074,-3.6104,-3.6156,-3.6199,-3.6281,-3.6314,-3.6363,-3.6366,-3.6398,-3.6373,-3.6366,-3.6364,-3.6361,-3.6364,-3.6402,-3.6403,-3.6403,-3.6404,0,-3.5808,-3.582,-3.5864,-3.5914,-3.5951,-3.5991,-3.6031,-3.6054,-3.6086,-3.6121,-3.6174,-3.6207,-3.6273,-3.6324,-3.6376,-3.6403,-3.6408,-3.6412,-3.6421,-3.6415,-3.6402,-3.6407,-3.6318,-3.6409,-3.6408,-3.6408,-3.6407,-3.6407,-3.5854,-3.5888,-3.5932,-3.5981,-3.6013,-3.605,-3.6086,-3.6114,-3.6159,-3.6214,-3.6226,-3.6282,-3.6325,-3.6395,-3.6423,-3.6466,-3.646,-3.6474,-3.6478,-3.6481,-3.6481,-3.6396,-3.6476,-3.6476,-3.6476,-3.6476,-3.6476,0,-3.5923,-3.5951,-3.5996,-3.6051,-3.6089,-3.6092,-3.6136,-3.6168,-3.6216,-3.6256,-3.6298,-3.6358,-3.6408,-3.6444,-3.6495,-3.6523,-3.6526,-3.6535,-3.6532,-3.6538,-3.6485,-3.647,-3.6531,-3.6531,-3.6531,-3.6531,-3.6531,-3.6531,-3.5963,-3.6021,-3.6039,-3.6113,-3.6141,-3.6195,-3.622,-3.6254,-3.6285,-3.6352,-3.6393,-3.6417,-3.6455,-3.6509,-3.6555,-3.6564,-3.6581,-3.6589,-3.6599,-3.6548,-3.6542,-3.6536,-3.6523,-3.6594,-3.6594,-3.6649,-3.6649,-3.6649]},{"header":{"parameterUnit":"m.s-1","parameterCategory":1,"la1":30.2991,"la2":30.254,"lo1":-89.0895,"lo2":-89.0444,"dy":0.0017,"dx":0.0017,"nx":28,"ny":28,"refTime":"2024-04-17T03:00:00:Z","depth":0,"parameterNumber":3,"parameterNumberName":"V-component_of_WINDS"},"data":[0,0,0,0,0,0,0,0,0,0,0,0,0,0,0,0,0,0,0,0,0,0,0,0,0,0,0,0,0,0,0,0,0,0,0,0,0,0,0,0,0,0,0,0,0,0,0,0,0,0,0,0,0,0,0,0,0,0,3.495,3.495,0,3.5006,3.5007,3.5007,3.5013,3.5012,3.5012,3.5011,3.5067,3.5069,3.5071,0,0,0,0,0,0,0,0,0,0,0,0,0,3.4846,3.4848,3.495,3.495,3.4951,3.5006,3.5007,3.5007,3.5013,3.5012,3.5011,3.5011,3.5067,3.5069,3.5071,0,0,0,0,0,0,0,0,0,0,0,0,0,3.4895,3.4848,3.495,3.496,3.4962,3.5006,3.5007,3.5008,3.5013,3.5012,3.5011,3.501,3.5066,3.5069,3.5072,3.5108,0,0,3.5081,3.5083,0,0,0,0,0,0,0,0,3.4893,3.4899,3.4958,3.496,3.4962,3.5001,3.4991,3.5041,3.5013,3.4994,3.5011,3.501,3.5046,3.5051,3.5063,3.5111,3.5113,3.5081,3.5083,3.5085,3.5086,0,0,0,0,0,0,0,3.4889,3.4897,3.4972,3.4959,3.4961,3.4962,3.4968,3.5,3.5024,3.4995,3.4996,3.5002,3.5047,3.506,3.5064,3.5114,3.5081,3.5084,3.5086,3.5087,3.5195,3.5196,0,0,0,0,0,0,3.4884,3.4894,3.497,3.4974,3.4924,3.4965,3.4972,3.499,3.5024,3.5028,3.5003,3.5002,3.5055,3.5061,3.5066,3.5112,3.5085,3.5087,3.5089,3.5194,3.5195,3.5196,0,0,0,0,0,0,3.4882,3.4891,3.4968,3.4934,3.4944,3.4967,3.4988,3.4991,3.5005,3.503,3.5034,3.5013,3.5055,3.5062,3.5098,3.5114,3.5089,3.5092,3.5193,3.5194,3.5196,3.5203,0,0,0,0,0,0,3.4879,3.489,3.4904,3.4934,3.4946,3.4999,3.4989,3.4993,3.501,3.501,3.504,3.5044,3.5055,3.5093,3.5101,3.5118,3.5094,3.5191,3.5193,3.5195,3.5201,3.5205,3.5207,0,0,0,0,0,3.4875,3.4904,3.4905,3.4914,3.4964,3.5,3.5006,3.5019,3.5011,3.5026,3.5042,3.5043,3.5111,3.5097,3.5106,3.5124,3.519,3.5193,3.5195,3.52,3.5204,3.5207,0,0,0,0,0,0,3.4875,3.4908,3.491,3.4949,3.4972,3.5001,3.502,3.5023,3.5048,3.5046,3.506,3.5067,3.5102,3.5116,3.51,3.5161,3.515,3.5154,3.5151,3.5154,3.5157,3.5154,3.5097,0,0,0,0,0,3.4879,3.4906,3.4933,3.4965,3.4977,3.4996,3.5012,3.502,3.5044,3.5053,3.5072,3.5095,3.5121,3.5138,3.5164,3.5203,3.521,3.5219,3.5222,3.5224,3.5228,3.525,3.5255,3.5204,3.5204,3.5204,0,0,3.4889,3.491,3.4926,3.4966,3.4984,3.5011,3.5004,3.5033,3.5053,3.5057,3.5093,3.5107,3.5133,3.5171,3.5188,3.5184,3.5244,3.5227,3.5229,3.5232,3.5253,3.5258,3.5262,3.5205,3.5205,3.5205,0,0,3.4921,3.494,3.4969,3.4987,3.5015,3.5028,3.5035,3.5064,3.5074,3.5109,3.5113,3.5137,3.5182,3.5201,3.5216,3.5254,3.5256,3.5262,3.5278,3.5299,3.5303,3.5307,3.5321,3.5326,3.5266,3.5266,3.5266,0,3.493,3.4971,3.4983,3.5012,3.503,3.5035,3.5064,3.5081,3.5116,3.5128,3.5122,3.5179,3.5197,3.5239,3.5249,3.5261,3.5269,3.526,3.5302,3.5305,3.5309,3.5323,3.5328,3.5266,3.5266,3.5266,3.5266,0,3.4981,3.5009,3.5029,3.5063,3.5082,3.5111,3.5128,3.5146,3.5151,3.5165,3.5201,3.5222,3.5253,3.5263,3.5269,3.5306,3.5302,3.5299,3.5288,3.5314,3.5328,3.5333,3.5267,3.5267,3.5267,3.5267,0,0,3.5015,3.5055,3.5063,3.5078,3.5109,3.5131,3.516,3.519,3.5206,3.5229,3.5254,3.5292,3.5289,3.5306,3.5313,3.5332,3.5362,3.5326,3.5327,3.5333,3.5405,3.5409,3.5415,3.5362,3.5364,3.5364,3.5403,0,3.5052,3.5104,3.5116,3.5161,3.5187,3.5192,3.5217,3.5239,3.5251,3.5275,3.5289,3.5316,3.531,3.532,3.5339,3.5354,3.5377,3.5351,3.5386,3.5387,3.5381,3.5421,3.5425,3.5461,3.5408,3.5409,3.541,0,3.5101,3.5126,3.5174,3.5202,3.5213,3.5236,3.5264,3.5287,3.5311,3.5319,3.5338,3.5344,3.5374,3.5361,3.5402,3.5385,3.54,3.5409,3.5411,3.5416,3.5401,3.5428,3.5473,3.5478,3.5418,3.5417,3.5417,0,3.5123,3.5169,3.5203,3.5216,3.5249,3.5265,3.5279,3.5302,3.532,3.5344,3.5355,3.5383,3.5398,3.5419,3.5431,3.5421,3.5472,3.546,3.548,3.548,3.5492,3.5491,3.554,3.5499,3.5499,3.5499,3.5499,0,3.5163,3.5193,3.5214,3.5235,3.5268,3.528,3.5312,3.5327,3.5347,3.5371,3.5376,3.5398,3.5413,3.5437,3.5447,3.548,3.5487,3.5494,3.5497,3.5495,3.5494,3.5505,3.5504,3.55,3.55,3.55,3.5499,0,3.5194,3.5209,3.5248,3.5275,3.5283,3.5306,3.5329,3.535,3.5362,3.5393,3.54,3.542,3.5449,3.5463,3.5498,3.5505,3.5543,3.5543,3.5535,3.5536,3.5556,3.5554,3.5615,3.5624,3.5576,3.5576,3.5576,0,3.522,3.5242,3.5272,3.5289,3.5304,3.533,3.5348,3.536,3.5379,3.5408,3.5425,3.5454,3.5478,3.5524,3.5541,3.5568,3.557,3.5589,3.5574,3.5571,3.5571,3.557,3.5573,3.5592,3.5593,3.5593,3.5593,0,3.5263,3.527,3.5295,3.5323,3.5344,3.5367,3.5389,3.5402,3.5418,3.5438,3.5468,3.5487,3.5523,3.5552,3.5581,3.5595,3.5597,3.5598,3.5604,3.5603,3.5598,3.5602,3.5544,3.5597,3.5596,3.5596,3.5596,3.5596,3.5293,3.5314,3.5338,3.5366,3.5384,3.5405,3.5426,3.5441,3.5466,3.5497,3.5502,3.5534,3.5557,3.5596,3.561,3.5635,3.5631,3.564,3.5642,3.5644,3.5646,3.5593,3.564,3.564,3.564,3.564,3.564,0,3.5338,3.5354,3.538,3.5411,3.5433,3.5433,3.5457,3.5476,3.5504,3.5525,3.5548,3.5583,3.561,3.5629,3.5657,3.5674,3.5675,3.5681,3.568,3.5684,3.5648,3.564,3.5679,3.5679,3.5679,3.5679,3.5679,3.5679,3.5365,3.54,3.5409,3.5452,3.5468,3.5499,3.5513,3.5532,3.5549,3.5587,3.561,3.5622,3.5643,3.5672,3.5698,3.5703,3.5713,3.5719,3.5724,3.569,3.5686,3.5682,3.5675,3.5721,3.5721,3.5758,3.5758,3.5758]}]]